Regional Weather Roundup
Issued by NWS

Home | Current Version | Previous Version | Graphics & Text | Print | Product List | Glossary Off
Versions: 1 2 3 4 5 6 7 8 9 10 11 12 13 14 15 16 17 18 19 20 21 22 23 24 25 26 27 28 29 30 31 32 33 34 35 36 37 38 39 40 41 42 43 44 45 46 47 48 49 50

606
ASUS43 KMKX 230520
RWRWI

WISCONSIN REGIONAL WEATHER ROUNDUP
NATIONAL WEATHER SERVICE MILWAUKEE/SULLIVAN WI
1100 PM CST WED NOV 22 2017

NOTE: "FAIR" INDICATES FEW OR NO CLOUDS BELOW 12,000 FEET WITH NO
SIGNIFICANT WEATHER AND/OR OBSTRUCTIONS TO VISIBILITY.

WIZ001-002-006>008-014>016-023>028-230600-
NORTHWEST WISCONSIN

CITY           SKY/WX    TMP DP  RH WIND       PRES   REMARKS
SUPERIOR ARPT  CLOUDY    24  21  89 CALM      30.00S
ASHLAND        CLOUDY    24  18  77 SW7       30.00S WCI  16
HAYWARD        CLOUDY    24  19  81 S8        29.98F WCI  15
SIREN          CLOUDY    25  19  77 S7        29.96F WCI  18
CUMBERLAND     CLOUDY    25  19  80 SE7       29.98F WCI  17
RICE LAKE      CLOUDY    26  20  79 E7        30.00F WCI  18
CHETEK         CLOUDY    26  19  76 SE5       30.01S WCI  20
LADYSMITH      CLOUDY    25  20  82 SE5       30.02F WCI  19
EAU CLAIRE     CLOUDY    28  18  66 SE5       30.02F WCI  23
MENOMONIE      CLOUDY    30  18  61 E5        30.00F WCI  25
NEW RICHMOND   CLOUDY    30  18  60 SE8       29.97F WCI  22
OSCEOLA        CLOUDY    29  20  69 SE7       30.00F WCI  22
$$

WIZ003>005-009-010-017-018-230600-
NORTH CENTRAL WISCONSIN

CITY           SKY/WX    TMP DP  RH WIND       PRES   REMARKS
MANITOWISH WTR FLURRIES  21  21  98 S9        29.97F WCI  11
ARBOR VITAE    LGT SNOW  23  20  89 SW8       29.98F WCI  14
WOODRUFF       LGT SNOW  23  20  89 SW8       29.98F WCI  14
RHINELANDER    LGT SNOW  22  20  92 SW9       30.00F FOG     WCI  12
EAGLE RIVER    CLOUDY    22  17  82 SW12      29.97F WCI  11
LAND O LAKES   CLOUDY    23  18  80 SW8G18    29.97F WCI  14
PHILLIPS       CLOUDY    22  20  94 S8        30.00F WCI  12
TOMAHAWK       MIX PCPN  22  19  91 CALM      30.03S
MEDFORD        CLOUDY    24  19  78 S7        30.01F WCI  16
MERRILL        CLOUDY    24  21  91 SW5       30.05S WCI  18
$$

WIZ029-030-035-036-043>047-230600-
CENTRAL WISCONSIN

CITY           SKY/WX    TMP DP  RH WIND       PRES   REMARKS
WAUSAU         CLOUDY    25  20  81 SW7       30.04F WCI  17
MOSINEE        NOT AVBL
MARSHFIELD     CLOUDY    27  18  69 S8        30.02F WCI  19
STEVENS POINT  MIX PCPN  24  21  88 S3        30.06F
WAUPACA        CLOUDY    29  24  79 SW7       30.11S HAZE    WCI  22
WAUTOMA        FLURRIES  27  22  81 S3        30.11F
WISC RAPIDS    CLOUDY    29  17  61 SW8       30.09S WCI  21
CAMP DOUGLAS   CLOUDY    31  16  54 S5        30.07F WCI  26
$$

WIZ011>013-019>022-031-037>040-048>050-230600-
NORTHEAST WISCONSIN

CITY           SKY/WX    TMP DP  RH WIND       PRES   REMARKS
ANTIGO         LGT SNOW  23  19  87 SW9       30.03F WCI  13
SHAWANO        CLOUDY    31  18  59 SW9G16    30.07F WCI  22
OCONTO         CLOUDY    29  16  58 SW7       30.09S WCI  22
STURGEON BAY   MOCLDY    29  18  63 SW9       30.09F WCI  20
GREEN BAY      CLOUDY    30  21  69 SW10      30.10F WCI  21
MANITOWOC      FLURRIES  29  21  72 SW8       30.13F WCI  21
APPLETON       CLOUDY    27  19  74 SW13      30.09F WCI  16
CLINTONVILLE   CLOUDY    28  18  64 SW9G16    30.09S WCI  20
OSHKOSH        LGT SNOW  27  24  89 SW8       30.11F FOG     WCI  19
$$

WIZ032>034-041-042-053>061-230600-
SOUTHWEST WISCONSIN

CITY           SKY/WX    TMP DP  RH WIND       PRES   REMARKS
LA CROSSE      CLOUDY    34  18  52 S10       30.06F WCI  26
SPARTA         CLOUDY    31  17  55 S8        30.06F WCI  24
VIROQUA        CLOUDY    30  19  63 S8        30.04F WCI  23
BOSCOBEL       CLOUDY    34  16  47 S7        30.11F WCI  28
PRAIRIE DU CHI CLOUDY    34  15  45 SE5       30.09F WCI  29
PLATTEVILLE    CLOUDY    32  21  64 S10       30.11F WCI  23
$$

WIZ056-057-062-063-064-067-068-230600-
SOUTH CENTRAL WISCONSIN

CITY           SKY/WX    TMP DP  RH WIND       PRES   REMARKS
REEDSBURG      CLOUDY    31  17  56 SW8       30.09F WCI  23
BARABOO/DELLS  CLOUDY    31  16  54 S5        30.09F WCI  26
LONE ROCK      CLOUDY    32  18  56 S6        30.11F WCI  26
MINERAL POINT  CLOUDY    32  21  64 S8        30.10F WCI  25
MADISON        CLOUDY    31  17  56 SW12G20   30.12F WCI  22
MIDDLETON      CLOUDY    32  18  57 S9        30.12F WCI  24
WATERTOWN      CLOUDY    30  19  61 SW7       30.14R WCI  23
MONROE         CLOUDY    30  19  64 S9        30.13S WCI  22
JANESVILLE     CLOUDY    32  19  59 SW7       30.15S WCI  26
$$

WIZ051-052-058>065-066-070>072-230600-
SOUTHEAST WISCONSIN

CITY           SKY/WX    TMP DP  RH WIND       PRES   REMARKS
MILWAUKEE      CLOUDY    32  19  58 SW8       30.15F WCI  25
WAUKESHA       CLOUDY    30  18  59 SW7       30.15S WCI  23
MILWAUKEE/TIMM CLOUDY    32  16  51 SW5       30.15S WCI  27
RACINE         CLOUDY    31  19  61 SW8       30.17F WCI  23
BURLINGTON     PTCLDY    32  25  73 SW6       30.14F WCI  27
KENOSHA        CLOUDY    32  18  56 SW7       30.16F WCI  26
FOND DU LAC    LGT SNOW  28  22  78 SW6       30.12F WCI  22
SHEBOYGAN      LGT SNOW  27  24  89 SW7       30.13S FOG     WCI  19
WEST BEND      CLOUDY    30  18  59 SW8       30.13S WCI  23
JUNEAU         FLURRIES  29  20  69 S8        30.13S WCI  21
$$

LSZ147-162-230600-
LAKE SUPERIOR

STATION/POSITION TIME  TEMP    WIND        PRES    WAVE
                       AIR SEA DIR/SP/G            HT/PER
                 (UTC) (F)     (DEG/KT/KT) (MB)    (FT/S)
DEVILS ISLAND    0500   27     230/ 21/ 24 1016.3F
SAXON HARBOR     0430   26     200/  7/ 13 1015.6F
$$

LMZ867-665-643>646-230600-
LAKE MICHIGAN

STATION/POSITION TIME  TEMP    WIND        PRES    WAVE
                       AIR SEA DIR/SP/G            HT/PER
                 (UTC) (F)     (DEG/KT/KT) (MB)    (FT/S)
N MID LAKE BUOY  0450   33 47  230/ 17/ 21 1019.1F   4/ 5
NORTHPORT PIER   0457   29     220/  3/  9 1017.9F
KEWAUNEE LAKESHO 0454   30     230/  7/ 15 1018.6F
SHEBOYGAN LAKESH 0500   29     240/ 14/ 16 1021.4S
PORT WASHINGTON  0430   32     250/  5/ 10 1021.7S
MILWAUKEE LAKESH 0500   32     240/  8/ 10   N/A
S MID LAKE BUOY  0450   35 47  260/ 16/ 19 1022.1S   3/ 4
KENOSHA   LAKESH 0500   31     230/  5/ 11 1021.7
$$

TC  - TEMPERATURE IN CELSIUS
VSB - VISIBILITY IN STATUTE MILES
WCI - WIND CHILL INDEX
HX  - HEAT INDEX





USA.gov is the U.S. government's official web portal to all federal, state and local government web resources and services.